CW4226 Weather Reports


Display with metric or nautical units.
time (UTC)temp
F
wind
direction
speed
MPH
gust
MPH
rain 1hr
in
rain 24hr
in
rain mn
in
humidity
%
barometer
mb
20260905083215 61 42 1.0 2.0 0.00 0.00 0.00 92 1008.6
20260905083008 62 69 0.0 0.0 0.00 0.00 0.00 89 1006.7
20260905082711 61 35 0.0 2.0 0.00 0.00 0.00 92 1008.5
20260905082206 61 57 1.0 1.0 0.00 0.00 0.00 92 1008.5
20260905081706 61 60 0.0 2.0 0.00 0.00 0.00 91 1008.6
20260905081507 63 69 0.0 0.0 0.00 0.00 0.00 89 1006.7
20260905081202 61 51 1.0 2.0 0.00 0.00 0.00 91 1008.4
20260905080701 62 46 0.0 2.0 0.00 0.00 0.00 91 1008.5
20260905080200 62 46 2.0 2.0 0.00 0.00 0.00 91 1008.6
20260905080006 63 69 0.0 0.0 0.00 0.00 0.00 88 1006.8
20260905075700 62 50 1.0 2.0 0.00 0.00 0.00 90 1008.8
20260905075159 62 37 0.0 2.0 0.00 0.00 0.00 90 1008.7
20260905074658 62 56 1.0 2.0 0.00 0.00 0.00 90 1008.7
20260905074507 64 69 0.0 0.0 0.00 0.00 0.00 87 1006.8
20260905074154 62 57 0.0 2.0 0.00 0.00 0.00 90 1008.7
20260905073649 62 68 1.0 2.0 0.00 0.00 0.00 90 1009.0
20260905073145 63 80 2.0 2.0 0.00 0.00 0.00 90 1008.7
20260905073008 64 69 0.0 0.0 0.00 0.00 0.00 87 1006.8
20260905072644 63 54 1.0 2.0 0.00 0.00 0.00 89 1008.5
20260905072140 63 64 1.0 2.0 0.00 0.00 0.00 89 1008.5
20260905071636 63 76 0.0 2.0 0.00 0.00 0.00 89 1008.8
20260905071507 65 69 0.0 0.0 0.00 0.00 0.00 86 1006.7
20260905071131 63 74 2.0 2.0 0.00 0.00 0.00 88 1008.9
20260905070627 64 95 1.0 2.0 0.00 0.00 0.00 88 1008.8
20260905070123 64 75 1.0 2.0 0.00 0.00 0.00 88 1008.9
20260905070007 65 69 0.0 0.0 0.00 0.00 0.00 85 1006.8
20260905065621 64 62 1.0 2.0 0.00 0.00 0.00 87 1008.9
20260905065115 64 53 0.0 2.0 0.00 0.00 0.00 87 1008.8
20260905064610 64 68 1.0 2.0 0.00 0.00 0.00 87 1008.9
20260905064106 65 57 2.0 2.0 0.00 0.00 0.00 87 1009.0
20260905063605 65 43 2.0 2.0 0.00 0.00 0.00 87 1008.9
20260905063102 65 73 0.0 2.0 0.00 0.00 0.00 86 1008.8
20260905063008 66 69 0.0 0.0 0.00 0.00 0.00 84 1007.0
20260905062557 65 67 1.0 2.0 0.00 0.00 0.00 86 1009.0
20260905062056 65 55 2.0 2.0 0.00 0.00 0.00 86 1009.1
20260905061551 66 52 1.0 2.0 0.00 0.00 0.00 85 1009.0
20260905061506 67 69 0.0 0.0 0.00 0.00 0.00 84 1007.1
20260905061050 66 66 2.0 2.0 0.00 0.00 0.00 85 1009.0
20260905060547 66 75 1.0 2.0 0.00 0.00 0.00 85 1009.0
20260905060042 66 94 1.0 1.0 0.00 0.00 0.00 85 1009.1
20260905055541 66 87 1.0 2.0 0.00 0.00 0.00 85 1009.2
20260905055036 66 59 0.0 2.0 0.00 0.00 0.00 85 1009.2
20260905054531 66 62 0.0 2.0 0.00 0.00 0.00 86 1009.3
20260905054027 67 71 0.0 1.0 0.00 0.00 0.00 85 1009.1
20260905053526 66 58 1.0 2.0 0.00 0.00 0.00 85 1009.2
20260905053022 66 78 1.0 2.0 0.00 0.00 0.00 85 1009.4
20260905053007 67 69 0.0 0.0 0.00 0.00 0.00 85 1007.4
20260905052521 66 93 0.0 2.0 0.00 0.00 0.00 85 1009.3
20260905052016 66 85 2.0 2.0 0.00 0.00 0.00 86 1009.5
20260905051512 66 72 0.0 2.0 0.00 0.00 0.00 86 1009.5
20260905051507 67 69 0.0 0.0 0.00 0.00 0.00 85 1007.6
20260905051009 66 60 1.0 2.0 0.00 0.00 0.00 86 1009.5
20260905050504 66 79 1.0 2.0 0.00 0.00 0.00 86 1009.6
20260905050006 67 69 0.0 0.0 0.00 0.00 0.00 85 1007.7
20260905050000 66 48 1.0 2.0 0.00 0.00 0.00 86 1009.7
20260905045455 66 64 1.0 2.0 0.00 0.00 0.00 86 1009.4
20260905044950 67 97 0.0 2.0 0.00 0.00 0.00 85 1009.7
20260905044451 67 84 0.0 2.0 0.00 0.00 0.00 86 1009.8
20260905043950 67 51 1.0 2.0 0.00 0.00 0.00 86 1009.6
20260905043449 67 72 1.0 2.0 0.00 0.00 0.00 86 1009.6
20260905043006 68 69 0.0 0.0 0.00 0.00 0.00 84 1007.7
20260905042945 67 53 2.0 2.0 0.00 0.00 0.00 85 1009.8
20260905042438 67 102 0.0 2.0 0.00 0.00 0.00 84 1009.6
20260905041934 67 55 1.0 2.0 0.00 0.00 0.00 84 1009.6
20260905041507 68 69 0.0 0.0 0.00 0.00 0.00 83 1007.5
20260905041430 67 62 0.0 2.0 0.00 0.00 0.00 83 1009.5
20260905040931 67 64 1.0 2.0 0.00 0.00 0.00 83 1009.5
20260905040430 67 78 0.0 2.0 0.00 0.00 0.00 84 1009.4
20260905040007 68 69 0.0 0.0 0.00 0.00 0.00 85 1007.6
20260905035929 67 70 1.0 2.0 0.00 0.00 0.00 85 1009.5
20260905035425 67 65 0.0 2.0 0.00 0.00 0.00 84 1009.6
20260905034922 67 81 1.0 2.0 0.00 0.00 0.00 85 1009.7
20260905034506 68 69 0.0 0.0 0.00 0.00 0.00 85 1007.6
20260905034417 67 104 0.0 2.0 0.00 0.00 0.00 85 1009.3
20260905033916 67 69 1.0 2.0 0.00 0.00 0.00 85 1009.6
20260905033411 67 84 1.0 2.0 0.00 0.00 0.00 85 1009.4
20260905033007 68 69 0.0 0.0 0.00 0.00 0.00 85 1007.5
20260905032910 67 55 1.0 2.0 0.00 0.00 0.00 86 1009.4
20260905032406 67 99 1.0 2.0 0.00 0.00 0.00 86 1009.4
20260905031901 67 114 0.0 2.0 0.00 0.00 0.00 86 1009.2
20260905031357 67 68 0.0 2.0 0.00 0.00 0.00 86 1009.4
20260905030852 67 61 0.0 2.0 0.00 0.00 0.00 86 1009.3
20260905030348 68 63 1.0 2.0 0.00 0.00 0.00 86 1009.2
20260905030007 68 69 0.0 0.0 0.00 0.00 0.00 85 1007.3
20260905025846 68 73 2.0 2.0 0.00 0.00 0.00 86 1009.2
20260905025341 68 63 0.0 2.0 0.00 0.00 0.00 85 1008.9
20260905024838 68 67 0.0 2.0 0.00 0.00 0.00 83 1009.2
20260905024507 68 69 0.0 0.0 0.00 0.01 0.00 83 1007.3
20260905024333 68 71 0.0 2.0 0.00 0.00 0.00 83 1009.2
20260905023828 68 67 2.0 2.0 0.00 0.00 0.00 83 1009.2
20260905023324 68 99 0.0 2.0 0.00 0.00 0.00 83 1009.4
20260905023007 68 69 0.0 0.0 0.00 0.01 0.00 83 1007.4
20260905022822 68 60 1.0 2.0 0.00 0.00 0.00 83 1009.2
20260905022318 68 64 1.0 2.0 0.00 0.00 0.00 84 1009.4
20260905021819 68 73 0.0 2.0 0.00 0.00 0.00 85 1009.4
20260905021507 68 69 0.0 0.0 0.00 0.01 0.00 84 1007.5
20260905021314 68 74 0.0 1.0 0.00 0.00 0.00 85 1009.4
20260905020814 68 77 0.0 2.0 0.00 0.00 0.00 84 1009.4
20260905020309 68 65 0.0 2.0 0.00 0.00 0.00 84 1009.3
20260905020007 69 69 0.0 0.0 0.00 0.01 0.00 84 1007.5
20260905015807 68 57 1.0 2.0 0.00 0.00 0.00 84 1009.3
20260905015306 68 56 2.0 2.0 0.00 0.00 0.00 84 1009.4
20260905014800 68 52 1.0 2.0 0.00 0.00 0.00 85 1009.2
20260905014506 69 69 0.0 1.0 0.00 0.01 0.00 84 1007.5
20260905014257 68 112 0.0 2.0 0.00 0.00 0.00 85 1009.5
20260905013752 68 67 1.0 1.0 0.00 0.00 0.00 84 1009.4
20260905013248 68 66 1.0 1.0 0.00 0.00 0.00 83 1009.5
20260905013008 69 69 0.0 1.0 0.00 0.01 0.00 82 1007.5
20260905012743 68 81 1.0 2.0 0.00 0.00 0.00 83 1009.4
20260905012239 68 57 1.0 2.0 0.00 0.00 0.00 83 1009.4
20260905011736 68 110 0.0 2.0 0.00 0.00 0.00 82 1009.4
20260905011231 69 121 0.0 1.0 0.00 0.00 0.00 82 1009.5
20260905010731 69 76 1.0 2.0 0.00 0.00 0.00 82 1009.4
20260905010226 69 49 0.0 2.0 0.00 0.00 0.00 81 1009.4
20260905005723 69 67 0.0 1.0 0.00 0.00 0.00 81 1009.5
20260905005219 69 59 1.0 2.0 0.00 0.00 0.00 81 1009.5
20260905004712 69 59 1.0 2.0 0.00 0.00 0.00 81 1009.4
20260905004508 70 69 0.0 0.0 0.00 0.01 0.00 80 1007.5
20260905004208 69 59 1.0 2.0 0.00 0.00 0.00 81 1009.2
20260905003703 69 45 0.0 2.0 0.00 0.00 0.00 80 1009.2
20260905003159 69 65 2.0 2.0 0.00 0.00 0.00 80 1009.3
20260905003007 71 69 0.0 1.0 0.00 0.01 0.00 78 1007.3
20260905002654 70 72 0.0 2.0 0.00 0.00 0.00 79 1009.0
20260905002154 70 44 0.0 2.0 0.00 0.00 0.00 78 1009.0
20260905001649 70 322 0.0 2.0 0.00 0.00 0.00 77 1008.8
20260905001507 72 69 0.0 1.0 0.00 0.01 0.00 75 1007.0
20260905001148 71 62 0.0 1.0 0.00 0.00 0.00 75 1008.8
20260905000644 71 115 0.0 1.0 0.00 0.00 0.00 73 1008.8
20260905000140 71 78 0.0 2.0 0.00 0.00 0.00 73 1008.9
20260905000008 73 69 0.0 1.0 0.00 0.01 0.00 72 1006.9
20260904235639 72 127 0.0 2.0 0.00 0.00 0.00 72 1008.7
20260904235139 72 55 0.0 2.0 0.00 0.00 0.00 70 1008.9
20260904234634 73 104 0.0 2.0 0.00 0.00 0.00 69 1008.7
20260904234507 74 69 0.0 1.0 0.00 0.02 0.00 68 1006.8
20260904234130 73 46 1.0 2.0 0.00 0.00 0.00 64 1008.6
20260904233625 73 87 0.0 1.0 0.00 0.00 0.00 65 1008.6
20260904233121 73 89 0.0 2.0 0.00 0.00 0.00 64 1008.5
20260904232618 73 93 0.0 2.0 0.00 0.00 0.00 66 1008.6
20260904232114 73 66 0.0 1.0 0.00 0.00 0.00 65 1008.5
20260904231609 74 95 1.0 2.0 0.00 0.00 0.00 65 1008.8
20260904231506 75 0 0.0 1.0 0.00 0.02 0.00 64 1006.7
20260904231109 74 62 0.0 2.0 0.00 0.00 0.00 62 1008.6
20260904230608 75 64 0.0 2.0 0.00 0.00 0.00 60 1008.4
20260904230104 75 74 1.0 2.0 0.00 0.00 0.00 59 1008.7
20260904230007 76 0 0.0 2.0 0.00 0.02 0.00 59 1006.6
20260904225601 75 86 1.0 3.0 0.00 0.00 0.00 58 1008.6
20260904225056 75 76 2.0 2.0 0.00 0.00 0.00 57 1008.8
20260904224551 76 64 1.0 2.0 0.00 0.00 0.00 57 1008.7
20260904224507 76 39 0.0 2.0 0.00 0.02 0.00 57 1006.8
20260904224046 76 70 1.0 3.0 0.00 0.00 0.00 56 1008.5
20260904223545 76 356 0.0 3.0 0.00 0.00 0.00 56 1008.9
20260904223041 76 70 1.0 1.0 0.00 0.00 0.00 57 1008.8
20260904223007 77 40 0.0 3.0 0.00 0.02 0.00 56 1006.8
20260904222536 76 71 1.0 2.0 0.00 0.00 0.00 55 1008.6
20260904222031 77 77 0.0 2.0 0.00 0.00 0.00 56 1008.8
20260904221526 77 54 1.0 2.0 0.00 0.00 0.00 55 1008.7
20260904221507 77 351 0.0 3.0 0.00 0.02 0.00 55 1006.8
20260904221020 77 77 1.0 3.0 0.00 0.00 0.00 54 1008.4
20260904220520 77 84 1.0 3.0 0.00 0.00 0.00 54 1008.8
20260904220016 77 56 2.0 3.0 0.00 0.00 0.00 53 1008.9
20260904220007 78 72 0.0 3.0 0.00 0.02 0.00 54 1006.8
20260904215516 77 64 1.0 3.0 0.00 0.00 0.00 53 1008.7
20260904215011 78 16 1.0 3.0 0.00 0.00 0.00 53 1008.6
20260904214507 78 58 1.0 2.0 0.00 0.00 0.00 52 1008.4
20260904214002 78 38 2.0 4.0 0.00 0.00 0.00 53 1008.4
20260904213500 78 38 2.0 3.0 0.00 0.00 0.00 52 1008.7
20260904213008 79 74 1.0 2.0 0.00 0.02 0.00 53 1006.7
20260904212957 78 73 0.0 2.0 0.00 0.00 0.00 53 1008.6
20260904212456 78 31 1.0 2.0 0.00 0.00 0.00 53 1008.5
20260904211951 78 74 0.0 2.0 0.00 0.00 0.00 53 1008.6
20260904211506 79 310 1.0 3.0 0.00 0.02 0.00 52 1006.7
20260904211446 79 53 1.0 4.0 0.00 0.00 0.00 51 1008.6
20260904210942 79 137 0.0 3.0 0.00 0.00 0.00 52 1008.7
20260904210440 79 45 2.0 3.0 0.00 0.00 0.00 50 1008.7
20260904205937 80 66 2.0 4.0 0.00 0.00 0.00 49 1008.6
20260904205432 80 99 0.0 4.0 0.00 0.00 0.00 49 1008.6
20260904204929 80 64 2.0 2.0 0.00 0.00 0.00 50 1008.7
20260904204507 81 81 2.0 3.0 0.00 0.02 0.00 49 1006.7
20260904204424 80 93 2.0 5.0 0.00 0.00 0.00 48 1008.7
20260904203921 81 38 2.0 2.0 0.00 0.00 0.00 49 1008.6
20260904203417 82 84 0.0 2.0 0.00 0.00 0.00 47 1008.6
20260904203006 81 232 0.0 5.0 0.00 0.02 0.00 50 1006.6
20260904202912 82 69 1.0 2.0 0.00 0.00 0.00 47 1008.5
20260904202409 82 89 0.0 3.0 0.00 0.00 0.00 46 1008.5
20260904201904 83 41 1.0 5.0 0.00 0.00 0.00 47 1008.9
20260904201507 82 345 1.0 3.0 0.00 0.02 0.00 49 1006.8
20260904201359 84 123 1.0 4.0 0.00 0.00 0.00 45 1008.7
20260904200854 83 249 2.0 2.0 0.00 0.00 0.00 49 1008.8
20260904200353 82 260 2.0 2.0 0.00 0.00 0.00 48 1009.1
20260904200007 81 268 2.0 5.0 0.00 0.02 0.00 51 1007.1
20260904195847 82 235 6.0 6.0 0.00 0.00 0.00 47 1009.1
20260904195346 81 1 0.0 4.0 0.00 0.00 0.00 50 1009.3
20260904194841 82 148 1.0 3.0 0.00 0.00 0.00 47 1009.2
20260904194506 81 148 1.0 5.0 0.00 0.02 0.00 50 1007.3
20260904194340 82 310 2.0 3.0 0.00 0.00 0.00 49 1009.4
20260904193836 83 340 0.0 3.0 0.00 0.00 0.00 47 1009.4
20260904193331 82 194 0.0 2.0 0.00 0.00 0.00 48 1009.6
20260904193007 81 218 1.0 5.0 0.00 0.02 0.00 50 1007.5
20260904192826 82 101 3.0 3.0 0.00 0.00 0.00 45 1009.6
20260904192321 82 114 1.0 4.0 0.00 0.00 0.00 46 1009.5
20260904191818 82 89 0.0 2.0 0.00 0.00 0.00 48 1009.5
20260904191507 80 155 1.0 3.0 0.00 0.02 0.00 51 1007.7
20260904191314 81 285 2.0 2.0 0.00 0.00 0.00 49 1009.6
20260904190810 80 74 2.0 3.0 0.00 0.00 0.00 48 1009.6
20260904190306 81 100 1.0 2.0 0.00 0.00 0.00 49 1009.7
20260904190007 80 151 2.0 6.0 0.00 0.02 0.00 47 1007.8
20260904185802 81 134 3.0 4.0 0.00 0.00 0.00 46 1009.8
20260904185257 81 253 2.0 3.0 0.00 0.00 0.00 47 1009.9
20260904184756 83 73 3.0 4.0 0.00 0.00 0.00 45 1009.9
20260904184507 82 121 2.0 6.0 0.00 0.02 0.00 50 1007.9
20260904184252 83 223 1.0 3.0 0.00 0.00 0.00 51 1009.8
20260904183748 83 259 2.0 3.0 0.00 0.00 0.00 51 1010.0
20260904183248 83 77 0.0 5.0 0.00 0.00 0.00 47 1009.8
20260904183007 81 205 1.0 3.0 0.00 0.02 0.00 51 1008.0
20260904182743 82 276 0.0 5.0 0.00 0.00 0.00 50 1010.1
20260904182238 82 213 2.0 4.0 0.00 0.00 0.00 50 1010.2
20260904181734 82 253 0.0 5.0 0.00 0.00 0.00 54 1010.1
20260904181507 81 188 2.0 5.0 0.00 0.02 0.00 48 1008.2
20260904181233 82 128 4.0 4.0 0.00 0.00 0.00 44 1010.2
20260904180729 83 267 1.0 4.0 0.00 0.00 0.00 51 1010.1
20260904180224 82 245 2.0 3.0 0.00 0.00 0.00 53 1010.2
20260904180006 81 244 1.0 3.0 0.00 0.02 0.00 52 1008.2
20260904175723 82 79 2.0 3.0 0.00 0.00 0.00 47 1010.0
20260904175221 81 92 2.0 4.0 0.00 0.00 0.00 52 1010.0
20260904174717 81 234 1.0 3.0 0.00 0.00 0.00 50 1010.3
20260904174507 80 232 1.0 6.0 0.00 0.02 0.00 52 1008.3
20260904174213 81 72 2.0 6.0 0.00 0.00 0.00 47 1010.2
20260904173708 80 319 0.0 5.0 0.00 0.00 0.00 52 1010.3
20260904173203 81 317 0.0 3.0 0.00 0.00 0.00 51 1010.2
20260904173008 80 303 1.0 5.0 0.00 0.02 0.00 50 1008.4
20260904172700 81 67 1.0 3.0 0.00 0.00 0.00 48 1010.3
20260904172159 81 218 0.0 6.0 0.00 0.00 0.00 49 1010.5
20260904171654 81 222 1.0 3.0 0.00 0.00 0.00 47 1010.2
20260904171507 81 203 1.0 3.0 0.00 0.02 0.00 52 1008.3
20260904171154 82 215 0.0 4.0 0.00 0.00 0.00 50 1010.4
20260904170651 82 301 2.0 4.0 0.00 0.00 0.00 47 1010.3
20260904170146 82 82 2.0 3.0 0.00 0.00 0.00 50 1010.4
20260904165645 82 315 1.0 3.0 0.00 0.00 0.00 53 1010.5
20260904165144 81 41 1.0 3.0 0.00 0.00 0.00 51 1010.4
20260904164639 81 240 2.0 5.0 0.00 0.00 0.00 55 1010.2
20260904164507 80 226 2.0 3.0 0.00 0.02 0.00 49 1008.6
20260904164134 81 100 1.0 3.0 0.00 0.00 0.00 52 1010.4
20260904163630 81 345 1.0 2.0 0.00 0.00 0.00 53 1010.3
20260904163126 80 145 2.0 3.0 0.00 0.00 0.00 51 1010.4
20260904163007 79 171 1.0 6.0 0.00 0.02 0.00 57 1008.5
20260904162620 80 137 2.0 3.0 0.00 0.00 0.00 53 1010.4
20260904162115 79 131 2.0 3.0 0.00 0.00 0.00 54 1010.7
20260904161610 80 288 1.0 4.0 0.00 0.00 0.00 56 1010.4
20260904161506 79 182 1.0 5.0 0.00 0.02 0.00 57 1008.7
20260904161105 79 277 1.0 5.0 0.00 0.00 0.00 58 1010.5
20260904160601 80 86 0.0 2.0 0.00 0.00 0.00 55 1010.4
20260904160057 79 256 2.0 3.0 0.00 0.00 0.00 60 1010.6
20260904160007 79 238 1.0 3.0 0.00 0.02 0.00 57 1008.8
20260904155555 79 163 1.0 3.0 0.00 0.00 0.00 60 1010.6
20260904155050 79 251 1.0 2.0 0.00 0.00 0.00 62 1010.7
20260904154543 78 81 1.0 4.0 0.00 0.00 0.00 56 1010.7
20260904154506 78 239 1.0 3.0 0.00 0.02 0.00 60 1008.8
20260904154038 78 211 0.0 2.0 0.00 0.00 0.00 62 1010.5
20260904153538 78 77 2.0 4.0 0.00 0.00 0.00 60 1010.7
20260904153034 78 203 2.0 3.0 0.00 0.00 0.00 61 1010.6
20260904152530 77 39 2.0 4.0 0.00 0.00 0.00 61 1010.7
20260904152025 77 81 1.0 3.0 0.00 0.00 0.00 66 1010.8
20260904151520 77 85 2.0 3.0 0.00 0.00 0.00 61 1010.8
20260904151020 78 28 2.0 3.0 0.00 0.00 0.00 62 1010.7
20260904150520 78 79 1.0 3.0 0.00 0.00 0.00 62 1010.6
20260904150015 79 28 2.0 5.0 0.00 0.00 0.00 62 1010.6
20260904150007 77 30 1.0 6.0 0.00 0.02 0.00 65 1008.8
20260904145509 79 92 1.0 5.0 0.00 0.00 0.00 61 1010.6
20260904145004 78 9 2.0 4.0 0.00 0.00 0.00 63 1010.8
20260904144501 77 106 2.0 2.0 0.00 0.00 0.00 67 1010.9
20260904143956 77 25 1.0 3.0 0.00 0.00 0.00 69 1011.0
20260904143452 76 149 1.0 2.0 0.00 0.00 0.00 71 1010.9
20260904143007 76 241 1.0 2.0 0.00 0.02 0.00 71 1009.1
20260904142948 77 42 1.0 2.0 0.00 0.00 0.00 69 1011.0
20260904142445 77 55 1.0 3.0 0.00 0.00 0.00 67 1011.0
20260904141944 77 54 2.0 2.0 0.00 0.00 0.00 69 1010.8
20260904141507 76 191 0.0 3.0 0.00 0.02 0.00 73 1009.2
20260904141439 77 209 0.0 2.0 0.00 0.00 0.00 71 1010.9
20260904140936 78 271 1.0 2.0 0.00 0.00 0.00 67 1010.7
20260904140435 78 114 3.0 3.0 0.00 0.00 0.00 66 1010.8
20260904140007 75 201 1.0 2.0 0.00 0.02 0.00 74 1008.8
20260904135934 76 131 0.0 3.0 0.00 0.00 0.00 71 1010.6
20260904135434 75 65 2.0 2.0 0.00 0.00 0.00 73 1010.6
20260904134931 75 65 2.0 3.0 0.00 0.00 0.00 71 1010.4
20260904134507 75 46 1.0 2.0 0.00 0.02 0.00 72 1008.8
20260904134430 76 9 2.0 4.0 0.00 0.00 0.00 69 1010.3
20260904133925 76 53 2.0 2.0 0.00 0.00 0.00 69 1010.6
20260904133420 77 50 4.0 4.0 0.00 0.00 0.00 69 1010.5
20260904133008 75 109 1.0 3.0 0.00 0.02 0.00 73 1008.7
20260904132915 77 124 2.0 4.0 0.00 0.00 0.00 69 1010.5
20260904132410 77 56 0.0 4.0 0.00 0.00 0.00 69 1010.3
20260904131910 76 68 1.0 3.0 0.00 0.00 0.00 71 1010.4
20260904131507 74 39 1.0 3.0 0.00 0.02 0.00 78 1008.7
20260904131405 76 42 0.0 2.0 0.00 0.00 0.00 74 1010.4
20260904130901 75 290 0.0 2.0 0.00 0.00 0.00 74 1010.3
20260904130359 75 199 0.0 4.0 0.00 0.00 0.00 73 1010.5
20260904130007 72 31 1.0 3.0 0.00 0.02 0.00 80 1008.8
20260904125855 75 39 2.0 4.0 0.00 0.00 0.00 74 1010.4
20260904125351 73 351 0.0 2.0 0.00 0.00 0.00 79 1010.4
20260904124850 73 248 0.0 3.0 0.00 0.00 0.00 83 1010.5
20260904124347 72 54 0.0 2.0 0.00 0.00 0.00 85 1010.5
20260904123842 73 311 0.0 2.0 0.00 0.00 0.00 85 1010.6
20260904123337 73 92 0.0 1.0 0.00 0.00 0.00 86 1010.7
20260904123008 70 219 0.0 1.0 0.00 0.02 0.00 92 1008.9
20260904122832 72 76 0.0 2.0 0.00 0.00 0.00 88 1010.7
20260904122332 70 74 0.0 1.0 0.00 0.00 0.00 91 1010.3
20260904121827 70 321 0.0 0.0 0.00 0.00 0.00 91 1010.2
20260904121323 70 228 1.0 2.0 0.00 0.00 0.00 91 1010.1
20260904120820 70 303 0.0 2.0 0.00 0.00 0.00 92 1010.2
20260904120315 70 352 0.0 0.0 0.00 0.00 0.00 92 1010.3
20260904120007 70 130 0.0 1.0 0.00 0.02 0.00 95 1008.6
20260904115810 70 228 0.0 1.0 0.00 0.00 0.00 93 1010.3
20260904115306 70 36 2.0 2.0 0.00 0.00 0.00 93 1010.5
20260904114800 70 81 0.0 2.0 0.00 0.00 0.00 93 1010.4
20260904114507 69 130 0.0 1.0 0.00 0.02 0.00 95 1008.8
20260904114259 69 64 0.0 2.0 0.00 0.00 0.00 93 1010.4
20260904113755 69 70 1.0 2.0 0.00 0.00 0.00 94 1010.5
20260904113254 69 39 0.0 2.0 0.00 0.00 0.00 94 1010.4
20260904113008 69 128 0.0 1.0 0.00 0.02 0.00 96 1008.8
20260904112749 69 84 0.0 2.0 0.00 0.00 0.00 95 1010.5
20260904112244 69 75 0.0 2.0 0.00 0.00 0.00 95 1010.4
20260904111740 69 38 1.0 1.0 0.00 0.00 0.00 95 1010.4
20260904111507 69 128 0.0 1.0 0.00 0.02 0.00 96 1008.5
20260904111236 69 51 0.0 2.0 0.00 0.00 0.00 96 1010.1
20260904110731 69 89 0.0 2.0 0.00 0.00 0.00 96 1010.4
20260904110230 69 48 0.0 2.0 0.00 0.00 0.00 96 1010.3
20260904110007 69 178 0.0 0.0 0.00 0.02 0.00 96 1008.4
20260904105725 69 43 1.0 2.0 0.00 0.00 0.00 95 1010.1
20260904105220 69 78 0.0 2.0 0.00 0.00 0.00 95 1010.0
20260904104715 69 49 1.0 2.0 0.00 0.00 0.00 95 1009.9
20260904104211 69 35 0.0 2.0 0.00 0.00 0.00 96 1009.7
20260904103708 69 54 0.0 1.0 0.00 0.00 0.00 96 1009.9
20260904103202 69 85 1.0 2.0 0.00 0.00 0.00 96 1009.8
20260904103007 69 178 0.0 0.0 0.00 0.02 0.00 97 1007.9
20260904102658 69 27 0.0 2.0 0.00 0.00 0.00 96 1009.8
20260904102153 69 74 2.0 2.0 0.00 0.00 0.00 96 1009.8
20260904101650 69 103 0.0 2.0 0.00 0.00 0.00 96 1009.6
20260904101506 69 178 0.0 1.0 0.00 0.03 0.00 97 1008.0
20260904101145 69 34 1.0 2.0 0.00 0.00 0.00 96 1009.7
20260904100641 69 95 0.0 2.0 0.00 0.00 0.00 96 1009.6
20260904100137 69 72 0.0 2.0 0.00 0.00 0.00 96 1009.7
20260904100007 69 178 0.0 1.0 0.00 0.03 0.00 97 1007.8
20260904095636 69 61 0.0 1.0 0.00 0.00 0.00 96 1009.7
20260904095131 69 88 2.0 2.0 0.00 0.00 0.00 97 1009.7
20260904094627 69 97 2.0 2.0 0.00 0.00 0.00 97 1009.7
20260904094506 69 189 0.0 0.0 0.00 0.03 0.00 97 1007.8
20260904094127 69 73 1.0 2.0 0.00 0.00 0.00 97 1009.8
20260904093624 69 84 0.0 2.0 0.00 0.00 0.00 97 1009.7
20260904093123 69 101 2.0 2.0 0.00 0.00 0.00 97 1009.8
20260904093007 69 189 0.0 0.0 0.00 0.03 0.00 98 1007.7
20260904092620 69 76 1.0 1.0 0.00 0.00 0.00 97 1009.7
20260904092115 69 63 0.0 2.0 0.00 0.00 0.00 97 1009.7
20260904091611 69 29 0.0 1.0 0.00 0.00 0.00 97 1009.7
20260904091111 69 55 0.0 1.0 0.00 0.00 0.00 97 1009.5
20260904090607 69 184 0.0 2.0 0.00 0.00 0.00 97 1009.5
20260904085557 69 49 1.0 2.0 0.00 0.00 0.00 97 1009.4
20260904085056 69 82 0.0 2.0 0.00 0.00 0.00 97 1009.3
20260904084552 69 52 1.0 2.0 0.00 0.00 0.00 98 1009.2
20260904084506 69 190 0.0 0.0 0.00 0.03 0.00 98 1007.1
20260904084049 69 76 1.0 2.0 0.00 0.00 0.00 98 1009.1